sat.trackr.live / text

‹ back to catalog

2024-105E

NORAD 59921 · 2024-105E

PAYLOAD ACTIVE UNKNOWN

§ Identity

Operator
Country
PRC
Launch date
2024-05-30
Launch site
JSC
Launch vehicle
Mass (kg)
RCS (m²)

External: N2YO · Heavens-Above · Gunter

§ Orbital elements

Epoch: 2026-09-22T23:15:29.616192Z

Period
95.28 min
Inclination
97.5788°
Eccentricity
0.0030121
Mean motion
15.11279713 rev/d
Perigee alt
511.5 km
Apogee alt
553.1 km
Semi-major
6,910.4 km
B*
9.7362e-5
RAAN
281.6913°
Arg perigee
208.3881°
Mean anomaly
151.5710°
Rev number
12,790

§ Raw data

2024-105E1 59921U 24105E   26265.96909278  .00001589  00000+0  97362-4 0  99922 59921  97.5788 281.6913 0030121 208.3881 151.5710 15.11279713127905

JSON: /api/v1/satellites/59921 · /tle

For live sub-satellite position, see the globe view (requires WebGL).

§ Visibility from observer

Set your observer location to see the next 7 days of passes ≥ 10°. The values pass through the URL so the page stays shareable.

No JS? Fill the form by hand. The geolocation button needs JavaScript.